Powrót do katalogu

STARLINK-36936

AktywnyŁącznośćVLEO
NORAD 68012·PAYLOAD·🇺🇸 United States

Wystrzelony Feb 27, 2026 z Vandenberg Space Force Base

Loading…

Następne Przeloty (najbliższe 24 godziny)

TLE

ŚwieżeSource: CelesTrak SupGP

Epoka: Sep 14, 2026, 21:21 UTC

1 68012C 26039AC  26257.89006944  .00049528  00000+0  17940-2 0  2576
2 68012  43.0029  60.0942 0001334 274.5632  60.4126 15.27551780    19

Śledź STARLINK-36936 w czasie rzeczywistym z AllMySat

Download on the App Store